Content
SEND FEEDBACK

Daily
Averages
Monthly
Summary
Iran

ABADAN, IRAN


Home > Middle East > Iran
Elevation: 36 feet     Latitude: 30 22N     Longitude: 048 15E

WEATHER
 
SELECT A DAY
Number of Records: 92,700;   Date Range: 12/18/01 - 10/24/14
 
SHARE

PRINT THIS DATA

[ ← Previous Day ]
WEATHER ALMANAC - JANUARY 31, 2013
[ Next Day → ]
[ °C ]   °F
Weather ElementAverageHighLow
Temperature58.7 °F61 °F (3:30 pm)55 °F (9:30 am)
Dewpoint53.1 °F57.2 °F (6:30 pm)46.4 °F (12:30 pm)
Humidity81.2 %100 % (9:30 am)63 % (1:00 pm)
Barometer29.83 in29.95 in (2:30 am)29.77 in (1:30 pm)
Wind Speed9.3 mph18.4 mph (1:30 pm)
Weather ElementAverage
Visibility4.2 mi
Wind DirectionESE (121.7 °)

Weather ElementTotal
Precipitation---
Heating Degree Days7 (Base 65)
Growing Degree Days8 (Base 50)
Averaged from 30 records on January 31, 2013
WEATHER CONDITIONS BREAKOUT
WIND DIRECTION BREAKOUT
WEATHER BY HOUR - JANUARY 31, 2013
[ °C ]   °F
Local TimeTemperatureDewpointHumidityBarometerVisibilityWind DirectionWind SpeedGust SpeedPrecipitationEventsConditions
1:30 AM57.2 °F50.0 °F77 %29.92 in3.7 miCalmMostly Cloudy
2:30 AM55.4 °F50.0 °F82 %29.95 in3.7 miESE (120°)6.9 mphMostly Cloudy
3:30 AM56.0 °F52.0 °F80 %29.92 in4.0 miEast (80°)4.5 mphMist
5:30 AM55.4 °F53.6 °F94 %29.89 in3.7 miCalmOvercast
6:30 AM57.2 °F51.8 °F82 %29.86 in3.7 miCalmOvercast
7:30 AM57.2 °F51.8 °F82 %29.86 in3.7 miEast (100°)4.6 mphOvercast
8:30 AM55.4 °F51.8 °F88 %29.92 in2.5 miCalmRainLight Rain
9:30 AM55.4 °F55.4 °F100 %29.92 in1.9 miEast (90°)4.6 mphRainRain
9:30 AM55.0 °F54.0 °F96 %29.94 in2.0 miEast (90°)4.5 mphRainLight Rain
10:30 AM57.2 °F53.6 °F88 %29.89 in2.5 miESE (120°)4.6 mphRainRain
11:30 AM57.2 °F50.0 °F77 %29.86 in5.0 miEast (100°)9.2 mphOvercast
12:30 PM57.2 °F46.4 °F67 %29.83 in5.0 miEast (90°)11.5 mphRainLight Rain
1:00 PM59.0 °F46.4 °F63 %29.80 in6.2 miEast (100°)13.8 mphOvercast
1:30 PM59.0 °F51.8 °F77 %29.77 in6.2 miEast (90°)18.4 mphOvercast
2:00 PM59.0 °F50.0 °F72 %29.77 in6.2 miESE (120°)16.1 mphOvercast
2:30 PM59.0 °F55.4 °F88 %29.77 in4.3 miEast (90°)11.5 mphOvercast
3:30 PM61.0 °F54.0 °F72 %29.78 in6.0 miSE (130°)15.7 mphPartly Cloudy
3:30 PM60.8 °F53.6 °F77 %29.77 in6.2 miSE (130°)16.1 mphOvercast
4:30 PM60.8 °F55.4 °F82 %29.77 in6.2 miSSE (150°)9.2 mphMostly Cloudy
5:00 PM60.8 °F55.4 °F82 %29.77 in6.2 miESE (120°)9.2 mphMostly Cloudy
5:30 PM60.8 °F53.6 °F77 %29.77 in6.2 miSSE (150°)9.2 mphOvercast
6:30 PM60.8 °F57.2 °F88 %29.77 in3.1 miSSE (160°)11.5 mphMostly Cloudy
7:30 PM60.8 °F57.2 °F88 %29.77 in3.7 miSouth (170°)13.8 mph
8:30 PM60.8 °F57.2 °F88 %29.77 in3.7 miSSE (160°)13.8 mph
9:00 PM60.8 °F57.2 °F88 %29.80 in4.3 miSouth (180°)13.8 mph
9:30 PM61.0 °F56.0 °F77 %29.82 in4.0 miSSW (200°)13.4 mphMist
9:30 PM60.8 °F55.4 °F82 %29.80 in4.3 miSSW (200°)13.8 mphMostly Cloudy
10:00 PM60.8 °F53.6 °F77 %29.83 in3.7 miSW (220°)13.8 mphMostly Cloudy
10:30 PM60.8 °F51.8 °F72 %29.83 in3.1 miSW (230°)11.5 mph
11:30 PM59.0 °F50.0 °F72 %29.83 in1.9 miWest (260°)4.6 mph
Hourly data recorded from OIAA, located miles away from Abadan, Iran







STORIES FROM OUR PARTNERS